Regional Weather Roundup
Issued by NWS

Home | Current Version | Previous Version | Text Only | Print | Product List | Glossary Off
Versions: 1 2 3 4 5 6 7 8 9 10 11 12 13 14 15 16 17 18 19 20 21 22 23 24 25 26 27 28 29 30 31 32 33 34 35 36 37 38 39 40 41 42 43 44 45 46 47 48 49 50

000
ASUS43 KFSD 251010
RWRSD

WEATHER ROUNDUP FOR SOUTH DAKOTA
NATIONAL WEATHER SERVICE SIOUX FALLS SD
400 AM CST SAT FEB 25 2017

NOTE: "FAIR" INDICATES FEW OR NO CLOUDS BELOW 12,000 FEET WITH NO
SIGNIFICANT WEATHER AND/OR OBSTRUCTIONS TO VISIBILITY.


SDZ001>005-009-010-012>017-251100-
NORTHWEST AND NORTH CENTRAL SOUTH DAKOTA

CITY           SKY/WX    TMP DP  RH WIND       PRES   REMARKS
BUFFALO          N/A     22  18  85 W3        29.86F
FAITH            N/A     19  16  88 S13       29.95F WCI   6
MOBRIDGE       CLOUDY    23  16  74 S3        29.98F
$$

SDZ012>016-024>037-041>051-057-063-072>074-251100-
SOUTHWEST AND SOUTH CENTRAL SOUTH DAKOTA

CITY           SKY/WX    TMP DP  RH WIND       PRES   REMARKS
RAPID CTY ARPT CLOUDY    15  10  80 W7        29.95F WCI   5
PIERRE         CLOUDY    20  15  81 S3        30.03F
CUSTER         CLOUDY    13   7  77 W5        29.84F WCI   5
ELLSWORTH AFB  CLOUDY    17  13  84 W5        29.93F WCI  10
PHILIP         CLOUDY    21  16  81 SW5       30.01F WCI  15
PINE RIDGE     CLOUDY     6   3  87 NW3       29.98F
SPEARFISH      CLOUDY    21  14  73 W3        29.91F
WINNER         CLOUDY    17  10  74 S3        30.05F
$$

SDZ004>011-016>023-039-040-251100-
NORTHEAST SOUTH DAKOTA

CITY           SKY/WX    TMP DP  RH WIND       PRES   REMARKS
ABERDEEN       CLEAR     12   8  84 SW6       30.05F WCI   3
WATERTOWN      CLEAR     14  11  87 NW7       30.01F WCI   4
BROOKINGS      CLEAR     14  11  87 W5        30.02F WCI   6
SISSETON         N/A     16  12  84 NW7       30.02F WCI   6
$$

SDZ017-020-022-023-036>040-048>070-251100-
SOUTHEAST SOUTH DAKOTA

CITY           SKY/WX    TMP DP  RH WIND       PRES   REMARKS
SIOUX FALLS    CLEAR     15  13  91 NW12      30.04F WCI   2
HURON          MOCLDY    15  13  91 CALM      30.07F
CHAMBERLAIN    CLOUDY    20  17  87 SW3       30.07F
MITCHELL       CLEAR     17  13  84 W7        30.09F WCI   8
YANKTON        CLOUDY    12   7  79 NW9       30.08F WCI   0
$$

ABBREVIATIONS USED IN REMARKS
   TC - TEMPERATURE IN CELSIUS
  WCI - WIND CHILL INDEX
   HX - HEAT INDEX
  VSB - VISIBILITY





USA.gov is the U.S. government's official web portal to all federal, state and local government web resources and services.